Regional Weather Roundup
Issued by NWS

Home | Current Version | Previous Version | Text Only | Print | Product List | Glossary On
Versions: 1 2 3 4 5 6 7 8 9 10 11 12 13 14 15 16 17 18 19 20 21 22 23 24 25 26 27 28 29 30 31 32 33 34 35 36 37 38 39 40 41 42 43 44 45 46 47 48 49 50
000
ASUS44 KFWD 221215
RWRTX
NORTH TEXAS HOURLY WEATHER ROUNDUP
NATIONAL WEATHER SERVICE FORT WORTH TX
700 AM CDT TUE JUL 22 2014

NOTE: "FAIR" INDICATES FEW OR NO CLOUDS BELOW 12,000 FEET WITH NO
SIGNIFICANT WEATHER AND/OR OBSTRUCTIONS TO VISIBILITY.

TXZ118-119-221300-
DALLAS/FORT WORTH METROPLEX

CITY           SKY/WX    TMP DP  RH WIND       PRES   REMARKS
DFW AIRPORT    MOCLDY    77  72  84 E5        30.05R HAZE
6HR MIN TEMP:  77; 6HR MAX TEMP:  82;

DALLAS LOVE    MOCLDY    78  72  81 E8        30.05R HAZE
6HR MIN TEMP:  78; 6HR MAX TEMP:  83;

FTW MEACHAM    MOCLDY    78  73  84 SE5       30.05R HAZE
6HR MIN TEMP:  78; 6HR MAX TEMP:  83;

DAL-EXECUTIVE  MOCLDY    77  72  84 E6          N/A  HAZE
6HR MIN TEMP:  76; 6HR MAX TEMP:  80;

FTW-ALLIANCE   MOCLDY    76  72  87 CALM      30.05R
6HR MIN TEMP:  75; 6HR MAX TEMP:  80;

FTW-NAS-JRB    MOCLDY    80  72  76 SE7       30.09R
6HR MIN TEMP:  80; 6HR MAX TEMP:  86;

FTW-SPINKS     CLEAR     75  72  88 SE6       30.07R FOG
ARLINGTON      MOCLDY    77  72  84 SE5       30.05R
6HR MIN TEMP:  77; 6HR MAX TEMP:  80;

ADDISON        MOCLDY    77  70  78 SE7       30.06R
MESQUITE       CLEAR     73  72  94 CALM      30.06R FOG
LANCASTER        N/A     72  69  92 E3        30.07R FOG
6HR MIN TEMP:  71; 6HR MAX TEMP:  75;

$$

TXZ091>094-102>105-117-120-121-131>134-221300-
NORTH CENTRAL TEXAS

CITY           SKY/WX    TMP DP  RH WIND       PRES   REMARKS
SHRMAN/DENISON MOCLDY    75  70  84 SE8       30.08R HAZE
6HR MIN TEMP:  75; 6HR MAX TEMP:  79;

GAINESVILLE    CLOUDY    73  72  94 SE5       30.09R FOG
6HR MIN TEMP:  73; 6HR MAX TEMP:  77;

BOWIE          CLOUDY    74  72  92 CALM      30.07R FOG
6HR MIN TEMP:  74; 6HR MAX TEMP:  78;

BRIDGEPORT     MOCLDY    74  74 100 CALM      30.08R FOG
6HR MIN TEMP:  74; 6HR MAX TEMP:  80;

DECATUR        MOCLDY    74  73  96 SE5       30.07R FOG
6HR MIN TEMP:  74; 6HR MAX TEMP:  78;

DENTON         MOCLDY    76  72  87 SE6       30.05R FOG
6HR MIN TEMP:  76; 6HR MAX TEMP:  80;

MCKINNEY       MOCLDY    74  72  93 SE3       30.06R FOG
6HR MIN TEMP:  73; 6HR MAX TEMP:  78;

GREENVILLE     MOCLDY    72  70  94 CALM      30.08R FOG
ROCKWALL       MOCLDY    73  72  94 E3        30.06R FOG
6HR MIN TEMP:  73; 6HR MAX TEMP:  77;

TERRELL        MOCLDY    75  73  93 E3        30.06R FOG
6HR MIN TEMP:  74; 6HR MAX TEMP:  80;

CLEBURNE       MOCLDY    75  75 100 E6        30.07R FOG
GRANBURY       MOCLDY    77  73  86 CALM      30.07R FOG
6HR MIN TEMP:  77; 6HR MAX TEMP:  83;

$$

TXZ083>090-098>101-113>116-127>130-139>142-154-155-221300-
WESTERN NORTH TEXAS

CITY           SKY/WX    TMP DP  RH WIND       PRES   REMARKS
WICHITA FALLS  MOCLDY    74  72  93 SE6       30.05R FOG
6HR MIN TEMP:  74; 6HR MAX TEMP:  79;

WF-KICKAPOO    MOCLDY    76  72  88 SE6       30.06R
6HR MIN TEMP:  76; 6HR MAX TEMP:  80;

VERNON         CLOUDY    75  69  84 E3        30.07R
6HR MIN TEMP:  63; 6HR MAX TEMP:  99;

ABILENE        MOCLDY    76  70  82 SE7       30.08R
6HR MIN TEMP:  76; 6HR MAX TEMP:  80;

ABILENE-DYESS  PTCLDY    74  68  83 SE8       30.07R
6HR MIN TEMP:  73; 6HR MAX TEMP:  81;

BRECKENRIDGE   MOCLDY    78  70  77 SE5       30.06R
6HR MIN TEMP:  78; 6HR MAX TEMP:  84;

MINERAL WELLS  MOCLDY    75  73  93 S5        30.05R
6HR MIN TEMP:  75; 6HR MAX TEMP:  80;

STEPHENVILLE   MOCLDY    75  72  88 E3        30.10R
6HR MIN TEMP:  75; 6HR MAX TEMP:  79;

COMANCHE       CLOUDY    73  72  99 CALM      30.07R FOG
6HR MIN TEMP:  73; 6HR MAX TEMP:  78;

BROWNWOOD      MOCLDY    72  72 100 CALM      30.07R FOG
COLEMAN        MOCLDY    75  69  81 CALM      30.08R
6HR MIN TEMP:  75; 6HR MAX TEMP:  78;

BRADY          CLEAR     75  70  83 SE3       30.08R
$$

TXZ143>147-156>162-174-175-221300-
CENTRAL TEXAS

CITY           SKY/WX    TMP DP  RH WIND       PRES   REMARKS
WACO           PTCLDY    77  73  88 S5        30.05R
6HR MIN TEMP:  77; 6HR MAX TEMP:  79;

WACO-TSTC      CLEAR     75  73  94 CALM      30.04  HAZE
WACO-MCGREGOR  PTCLDY    75  72  88 SE5       30.07R
6HR MIN TEMP:  75; 6HR MAX TEMP:  79;

HILLSBORO      MOCLDY    75  72  89 E6        30.06R FOG
6HR MIN TEMP:  75; 6HR MAX TEMP:  80;

CORSICANA      PTCLDY    77  73  87 SE6       30.06R FOG
6HR MIN TEMP:  77; 6HR MAX TEMP:  80;

MEXIA          PTCLDY    74  73  97 CALM      30.04R FOG
6HR MIN TEMP:  74; 6HR MAX TEMP:  78;

HEARNE         PTCLDY    77  75  95 CALM      30.05R FOG
6HR MIN TEMP:  77; 6HR MAX TEMP:  82;

CAMERON        PTCLDY    76  74  94 CALM      30.05R
6HR MIN TEMP:  76; 6HR MAX TEMP:  80;

TEMPLE           N/A     73  70  88 SE7       30.06R
6HR MIN TEMP:  73; 6HR MAX TEMP:  81;

KILLEEN        MOCLDY    75  72  88 S6        30.06R
KILLEEN-SKYLRK PTCLDY    75  68  78 SE7       30.06R
6HR MIN TEMP:  73; 6HR MAX TEMP:  82;

FORT HOOD      PTCLDY    77  73  87 E5        30.06R
6HR MIN TEMP:  77; 6HR MAX TEMP:  83;

GATESVILLE     PTCLDY    73  73 100 CALM      30.08R
HAMILTON       MOCLDY    74  74 100 E3        30.07R
6HR MIN TEMP:  74; 6HR MAX TEMP:  79;

LAMPASAS       MOCLDY    76  74  93 CALM      30.06R
6HR MIN TEMP:  74; 6HR MAX TEMP:  80;

$$

TXZ095>097-106>112-122>126-135>138-148>153-164>167-221300-
EAST TEXAS

CITY           SKY/WX    TMP DP  RH WIND       PRES   REMARKS
PARIS          MOCLDY    70  64  83 E7        30.08S
6HR MIN TEMP:  70; 6HR MAX TEMP:  73;

SULPHUR SPRNGS   N/A     71  70  98 E5        30.09R FOG
6HR MIN TEMP:  71; 6HR MAX TEMP:  76;

CLARKSVILLE    PTCLDY    71  70  97 CALM      30.08R
6HR MIN TEMP:  69; 6HR MAX TEMP:  75;

MOUNT PLEASANT PTCLDY    69  69  98 CALM      30.09R
6HR MIN TEMP:  68; 6HR MAX TEMP:  74;

GILMER         CLEAR     72  72 100 CALM      30.09R FOG
MINEOLA        PTCLDY    70  70 100 CALM      30.08R FOG
TYLER          CLEAR     74  69  85 CALM      30.06R
6HR MIN TEMP:  73; 6HR MAX TEMP:  79;

LONGVIEW       CLEAR     71  68  90 CALM      30.06R FOG
6HR MIN TEMP:  70; 6HR MAX TEMP:  74;

MARSHALL       CLEAR     71  69  93 CALM      30.10R
6HR MIN TEMP:  71; 6HR MAX TEMP:  73;

ATHENS         MOCLDY    72  70  94 CALM      30.05R FOG
JACKSONVILLE   PTCLDY    74  70  88 CALM      30.09R FOG
HENDERSON      CLEAR     70  69  99 CALM      30.08  FOG
6HR MIN TEMP:  69; 6HR MAX TEMP:  75;

NACOGDOCHES    MOCLDY    73  70  88 CALM      30.06S
6HR MIN TEMP:  72; 6HR MAX TEMP:  75;

LUFKIN         PTCLDY    77  72  84 E3        30.05R HAZE
6HR MIN TEMP:  76; 6HR MAX TEMP:  80;

$$

SUPPLEMENTAL OBSERVATIONS (CENTRAL)

CITY           SKY/WX    TMP DP  RH WIND       PRES   REMARKS
LAKE TEXOMA      N/A     72  72 100 E5          N/A
CADDO GRASSLND   N/A     72  68  88 S1          N/A
PAT MAYSE LAKE   N/A     70  68  94 NW1         N/A
GREENVILLE       N/A     73  68  83 E2          N/A
CEDAR HILL       N/A     75  70  83 SE5         N/A
ATHENS           N/A     75  70  83 SE5         N/A
LAKE LIMESTONE   N/A     75  73  94 E1          N/A
MCGREGOR         N/A     75  72  88 S1          N/A
$$

SUPPLEMENTAL OBSERVATIONS (WEST)

CITY           SKY/WX    TMP DP  RH WIND       PRES   REMARKS
MILLERS CREEK    N/A     77  66  69 S5          N/A
LBJ GRASSLAND    N/A     75  70  83 SE5         N/A
HAMBY            N/A     75  68  78 S5          N/A



USA.gov is the U.S. government's official web portal to all federal, state and local government web resources and services.